MINOTAUR 4 DEB, 54256

Orbit data source: Space-Track

MINOTAUR 4 DEB, 54256 is space debris in LEO originally from a launch on Wed, 15 Jul 2020 UTC launched from the Wallops Island (WLPIS). Debris objects in space refer to the collection of defunct objects orbiting the Earth. Examples of debris include non-operational satellites, rocket bodies, and fragments generated from explosions, collisions, or faulty payload assembly.

Loading next visibility...
Identifier
54256, 2020-046AK
Orbit
LEO
Country
Flag of USUS
Related business
Manufacturer
NGIS FSG
Mission
Spacecraft
Bus & Motor
Unknown
Mass
Unknown
Launch date (UTC)
2020-07-15 (5 years ago)
Launch vehicle
Unknown
Launch site
Wallops Island (WLPIS)
Object type
Payload
Rocket body
Debris
Shape & HBR
Unknown
Radar Cross Section
Small (<0.1 m²)

Expand to show TLE details & history
Last TLE update: 2 days ago

TLE from 2 days ago
0 MINOTAUR 4 DEB
1 54256U 20046AK  25258.11501228  .00014189  00000-0  65572-3 0  9997
2 54256  54.2207  37.6847 0021484 171.6444 188.4928 15.20268342204239
Epoch: 2025-09-15T02:45Z
TLE epoch observation values (Epoch: 2025-09-15T02:45:37.061Z)
Latitude
-0°
Longitude
1.95597°
Altitude
520.666 km
Speed
7.596 km/s
True Right ascension
02h 30m 44s
True Declination
0° 00' 00"
Sunlit
Object was in full shadow at epoch
Visualization orbit readout
Latitude
Unknown
Longitude
Unknown
Altitude
Unknown
Speed
Unknown
Apparent Right ascension
Unknown
Apparent Declination
Unknown
Sunlit
N/A
Visualization observer readout
Local Sidereal Time
18:54:34
Azimuth
Unknown
Elevation
Unknown
Doppler factor
Unknown
Orbital elements
Apogee altitude
519.904 km
Perigee altitude
490.328 km
Semi-major axis
6,883.253 km
Eccentricity
0.00215
Inclination
54.2207°
RAAN
37.6847°
Arg. of periapsis
171.6444°
True anomaly
188.45654°
Mean anomaly
188.4928°
Eccentric anomaly
188.47466°
Mean motion
3.8006 °/min
Orbital period
94.72 mins
BSTAR
0.00065572
Loading maneuver chart data...
Computing Atmospheric mass density...
Loading historical data...
Loading historical data...
Loading historical data...
Loading historical data...
Loading historical data...
Loading historical data...
Loading historical data...

Documentation

Showing up to 5 results
|